View from above orbital plane
|
View from above satellite
|
Ground track
|
The orbit data is extracted from the following two-line orbital elements,
1 00011U 59001A 21056.68290859 .00000408 00000-0 19571-3 0 9996
2 00011 32.8755 184.6280 1468714 241.1336 103.4137 11.85757741305041
Epoch (UTC): | 25 February 2021 16:23:23 |
Eccentricity: | 0.1468714 |
inclination: | 32.8755° |
perigee height: | 552 km |
apogee height: | 2938 km |
right ascension of ascending node: | 184.6280° |
argument of perigee: | 241.1336° |
revolutions per day: | 11.85757741 |
mean anomaly at epoch: | 103.4137° |
orbit number at epoch: | 30504 |
The dashed part of the orbit path shows where the satellite is in the earth's shadow,
|
|